Regional Weather Roundup
Issued by NWS Sterling, VA

Home | Current Version | Previous Version | Graphics & Text | Print | Product List | Glossary On
Versions: 1 2 3 4 5 6 7 8 9 10 11 12 13 14 15 16 17 18 19 20 21 22 23 24 25 26 27
000
ASUS41 KLWX 301910
RWRLWX

REGIONAL WEATHER ROUNDUP
NATIONAL WEATHER SERVICE BALTIMORE MD/WASHINGTON DC
300 PM EDT TUE AUG 30 2016

Note: "FAIR" indicates few or no clouds below 12,000 feet
with no significant weather and/or obstructions to visibility.
 TC=TEMPERATURE CELSIUS

 * =Non NWS site. Station does not report precipitation (e.g. rain,
    snow, etc.), thunder, or fog.

DCZ001-MDZ009-015-VAZ040>042-051-053>054-302000-
WASHINGTON METRO

CITY           SKY/WX    TMP DP  RH WIND       PRES   REMARKS
WASHINGTON NAT MOSUNNY   89  62  40 NE3       30.08F
DULLES         MOSUNNY   91  60  35 VRB3      30.09F HX  90
ANDREWS AFB    MOSUNNY   87  62  42 NE8       30.07F
FT BELVOIR     MOSUNNY   88  64  44 CALM      30.07F
QUANTICO       MOSUNNY   88  62  41 E6        30.08F
COLLEGE PARK*  SUNNY     86  61  42 NE5       30.07F
LEESBURG*      PTSUNNY   90  64  43 CALM      30.11F HX  91
GAITHERSBURG*  MOSUNNY   84  63  48 N3        30.13F

$$

MDZ006>007-011-014-302000-
BALTIMORE METRO

CITY           SKY/WX    TMP DP  RH WIND       PRES   REMARKS
BWI AIRPORT    MOSUNNY   88  60  38 VRB5      30.08F
MD SCIENCE CTR   N/A     87  59  38 MISG      30.08F
MARTIN STATE   PTSUNNY   86  68  54 SE8       30.09F
ANNAPOLIS      SUNNY     86  59  39 NE7       30.08F
FORT MEADE*    SUNNY     86  59  39 CALM      30.11F

$$

MDZ012-015-019>023-302000-
MARYLAND EASTERN SHORE

CITY           SKY/WX    TMP DP  RH WIND       PRES   REMARKS
OCEAN CITY     SUNNY     82  74  76 SE9       30.08F
SALISBURY      PTSUNNY   88  69  53 SE6       30.05F HX  92
BAY BRIDGE AP* SUNNY     84  64  51 N7        30.09F
CAMBRIDGE*     SUNNY     84  66  54 N5        30.07F
EASTON*        MOSUNNY   90  70  51 N6        30.12F HX  95

$$

MDZ017>025-302000-
SOUTHERN MARYLAND

CITY           SKY/WX    TMP DP  RH WIND       PRES   REMARKS
PATUXENT RIVER MOSUNNY   87  67  51 NE12      30.07F HX  90
ST INIGOES     MOSUNNY   87  70  56 E5        30.06F HX  92
LEONARDTOWN*   SUNNY     86  66  51 NE7       30.09F

$$

MDZ003>005-302000-
NORTH CENTRAL MARYLAND

CITY           SKY/WX    TMP DP  RH WIND       PRES   REMARKS
FREDERICK*     MOSUNNY   86  64  48 VRB3      30.12F
HAGERSTOWN APT SUNNY     88  58  36 NW9       30.10F

$$

MDZ501>502-302000-
WESTERN MARYLAND

CITY           SKY/WX    TMP DP  RH WIND       PRES   REMARKS
OAKLAND*       SUNNY     77  54  44 NW3       30.21F
CUMBERLAND*    SUNNY     90  54  29 CALM      30.13F

$$

VAZ025>031-302000-
SHENANDOAH VALLEY

CITY           SKY/WX    TMP DP  RH WIND       PRES   REMARKS
WINCHESTER*    MOSUNNY   88  61  40 CALM      30.11F
FRONT ROYAL*   FAIR      86  68  54 SE7       30.10F
LURAY*         FAIR      86  64  48 CALM      30.10F
NEW MARKET*    FAIR     N/A N/A N/A E3        30.09F
STAUNTON*      MOSUNNY   85  66  53 SE5       30.13F
WAYNESBORO*    FAIR      85  66  54 SE6       30.13F

$$

WVZ021-048>050-054>055-302000-
EASTERN WEST VIRGINIA PANHANDLE

CITY           SKY/WX    TMP DP  RH WIND       PRES   REMARKS
MARTINSBURG    MOSUNNY   86  62  44 CALM      30.10F
PETERSBURG*    SUNNY     92  63  37 NE5       30.07F HX  93

$$

VAZ036>039-050-302000-
CENTRAL FOOTHILLS

CITY           SKY/WX    TMP DP  RH WIND       PRES   REMARKS
CHARLOTTESVILL MOSUNNY   88  67  49 VRB3      30.09F HX  91
CULPEPER*      SUNNY     88  67  50 CALM      30.09F HX  91
ORANGE*          N/A     86  66  51 CALM      30.11F
GORDONSVILLE*  FAIR      88  70  55 CALM      30.08F HX  92
WARRENTON*     FAIR      91  56  31 CALM      30.09F

$$

VAZ055>057-302000-
NORTH AND CENTRAL PIEDMONT

CITY           SKY/WX    TMP DP  RH WIND       PRES   REMARKS
FREDERICKSBRG* SUNNY     89  67  47 E5        30.07  HX  92
STAFFORD*      SUNNY     90  60  37 NW3       30.12F

$$

NCZ024-NYZ072-PAZ021-071-VAZ022-071-302000-
OTHER REGIONAL OBSERVATIONS

CITY           SKY/WX    TMP DP  RH WIND       PRES   REMARKS
NEW YORK CITY  SUNNY     84  60  44 SE6       30.11F
PHILADELPHIA   MOSUNNY   89  59  36 VRB3      30.07F
PITTSBURGH     MOSUNNY   85  43  22 CALM      30.13F
ROANOKE        PTSUNNY   85  67  54 W5        30.13F
RICHMOND       MOSUNNY   92  64  39 NE8       30.05F HX  93
RALEIGH        MOSUNNY   91  65  41 E8        30.05F HX  93

$$

ANZ530>537-302000-
MARINE OBSERVATIONS

STATION/POSITION TIME  TEMP    WIND        PRES
                       AIR SEA DIR/SP/G
                 (UTC) (F)     (DEG/KT/KT) (MB)
THOMAS PT LIGHT  1900   80 83   40/  9/ 10 1020.1F
BALT KEY BRIDGE  1848   82     130/  7/  9 1018.6F
COVE POINT       1848   80      10/  7/ 10 1019.3F
LEWISETTA        1848   82 84   80/  4/  5 1018.0F
SOLOMONS ISLAND  1836   85 86   CALM  /  2   N/A
PINEY POINT      1848          180/  4/  4   N/A

$$





USA.gov is the U.S. government's official web portal to all federal, state and local government web resources and services.